• In Belarus
  • List of Countries
  • For 7 days
  • Water Temperature
  • Satellite Maps
  • Weather Map
  • Weather Widgets
  • user-avatar
    Login

    Hourly Weather Aleksandrowka

    Today, 20 March, Wednesday

    Time Temperature Precipitation Wind Pressure Humidity
    00:00 +2°C° 0 mm 2 mps 765 mmHg 77%
    01:00 +1°C° 0 mm 2 mps 765 mmHg 81%
    02:00 +1°C° 0 mm 2 mps 765 mmHg 84%
    03:00 +1°C° 0 mm 2 mps 765 mmHg 86%
    04:00 -1°C° 0 mm 2 mps 765 mmHg 89%
    05:00 +1°C° 0 mm 2 mps 766 mmHg 88%
    06:00 +1°C° 0 mm 2 mps 766 mmHg 88%
    07:00 +1°C° 0 mm 2 mps 766 mmHg 84%
    08:00 +3°C° 0 mm 2 mps 766 mmHg 77%
    09:00 +5°C° 0 mm 2 mps 767 mmHg 69%
    10:00 +7°C° 0 mm 3 mps 767 mmHg 61%
    11:00 +8°C° 0 mm 3 mps 767 mmHg 55%
    12:00 +9°C° 0 mm 3 mps 767 mmHg 49%
    13:00 +10°C° 0 mm 3 mps 767 mmHg 43%
    14:00 +10°C° 0 mm 3 mps 766 mmHg 43%
    15:00 +10°C° 0 mm 3 mps 766 mmHg 44%
    16:00 +11°C° 0 mm 3 mps 766 mmHg 44%
    17:00 +9°C° 0 mm 3 mps 766 mmHg 49%
    18:00 +8°C° 0 mm 2 mps 766 mmHg 54%
    19:00 +7°C° 0 mm 2 mps 766 mmHg 60%
    20:00 +6°C° 0 mm 2 mps 767 mmHg 62%
    21:00 +6°C° 0 mm 2 mps 767 mmHg 64%
    22:00 +4°C° 0 mm 3 mps 767 mmHg 66%
    23:00 +4°C° 0 mm 3 mps 767 mmHg 66%

    Tomorrow, 21 March, Thursday

    Time Temperature Precipitation Wind Pressure Humidity
    00:00 +4°C° 0 mm 3 mps 767 mmHg 65%
    01:00 +4°C° 0 mm 3 mps 767 mmHg 65%
    02:00 +4°C° 0 mm 3 mps 767 mmHg 68%
    03:00 +4°C° 0 mm 3 mps 767 mmHg 70%
    04:00 +3°C° 0 mm 3 mps 767 mmHg 72%
    05:00 +4°C° 0 mm 3 mps 767 mmHg 74%
    06:00 +4°C° 0 mm 3 mps 767 mmHg 76%
    07:00 +5°C° 0 mm 3 mps 768 mmHg 79%
    08:00 +6°C° 0 mm 4 mps 768 mmHg 78%
    09:00 +7°C° 0 mm 4 mps 768 mmHg 77%
    10:00 +8°C° 0 mm 4 mps 768 mmHg 76%
    11:00 +10°C° 0 mm 4 mps 767 mmHg 72%
    12:00 +12°C° 0 mm 4 mps 767 mmHg 69%
    13:00 +13°C° 0 mm 4 mps 767 mmHg 65%
    14:00 +13°C° 0 mm 3 mps 767 mmHg 65%
    15:00 +13°C° 0 mm 3 mps 766 mmHg 64%
    16:00 +14°C° 0 mm 3 mps 766 mmHg 64%
    17:00 +13°C° 0 mm 2 mps 766 mmHg 70%
    18:00 +12°C° 0 mm 2 mps 766 mmHg 76%
    19:00 +11°C° 0 mm 1 mps 766 mmHg 82%
    20:00 +10°C° 0 mm 1 mps 766 mmHg 84%
    21:00 +10°C° 0 mm 1 mps 766 mmHg 86%
    22:00 +10°C° 0 mm 1 mps 766 mmHg 88%
    23:00 +9°C° 0 mm 1 mps 766 mmHg 89%

    Day after tomorrow, 22 March, Friday

    Time Temperature Precipitation Wind Pressure Humidity
    00:00 +8°C° 0 mm 2 mps 766 mmHg 90%
    01:00 +8°C° 0 mm 2 mps 766 mmHg 91%
    02:00 +8°C° 0 mm 2 mps 766 mmHg 92%
    03:00 +7°C° 0 mm 2 mps 766 mmHg 92%
    04:00 +7°C° 0 mm 2 mps 766 mmHg 93%
    05:00 +7°C° 0 mm 2 mps 766 mmHg 92%
    06:00 +7°C° 0 mm 2 mps 766 mmHg 92%
    07:00 +7°C° 0 mm 2 mps 766 mmHg 92%
    08:00 +9°C° 0 mm 2 mps 766 mmHg 85%
    09:00 +12°C° 0 mm 2 mps 766 mmHg 77%
    10:00 +14°C° 0 mm 2 mps 766 mmHg 70%
    11:00 +15°C° 0 mm 2 mps 766 mmHg 65%
    12:00 +17°C° 0 mm 2 mps 766 mmHg 61%
    13:00 +19°C° 0 mm 1 mps 765 mmHg 57%
    14:00 +19°C° 0 mm 1 mps 765 mmHg 56%
    15:00 +19°C° 0 mm 1 mps 764 mmHg 54%
    16:00 +19°C° 0 mm 1 mps 764 mmHg 53%
    17:00 +18°C° 0 mm 1 mps 764 mmHg 58%
    18:00 +16°C° 0 mm 1 mps 764 mmHg 63%
    19:00 +14°C° 0 mm 1 mps 764 mmHg 68%
    20:00 +13°C° 0 mm 2 mps 764 mmHg 71%
    21:00 +13°C° 0 mm 2 mps 764 mmHg 74%
    22:00 +12°C° 0 mm 2 mps 764 mmHg 77%
    23:00 +12°C° 0 mm 2 mps 763 mmHg 78%

    23 March, Saturday

    Time Temperature Precipitation Wind Pressure Humidity
    00:00 +10°C° 0 mm 2 mps 763 mmHg 79%
    01:00 +10°C° 0 mm 2 mps 763 mmHg 80%
    02:00 +10°C° 0 mm 2 mps 763 mmHg 79%
    03:00 +9°C° 0 mm 2 mps 763 mmHg 79%
    04:00 +9°C° 0 mm 2 mps 762 mmHg 78%
    05:00 +9°C° 0 mm 2 mps 762 mmHg 78%
    06:00 +9°C° 0 mm 2 mps 762 mmHg 77%
    07:00 +9°C° 0 mm 3 mps 762 mmHg 77%
    08:00 +11°C° 0 mm 3 mps 763 mmHg 72%
    09:00 +13°C° 0 mm 3 mps 763 mmHg 66%
    10:00 +16°C° 0 mm 3 mps 763 mmHg 61%
    11:00 +17°C° 0 mm 4 mps 763 mmHg 58%
    12:00 +18°C° 0 mm 4 mps 762 mmHg 55%
    13:00 +19°C° 0 mm 4 mps 762 mmHg 51%
    14:00 +18°C° 0 mm 4 mps 762 mmHg 53%
    15:00 +18°C° 0 mm 4 mps 762 mmHg 55%
    16:00 +17°C° 0 mm 4 mps 762 mmHg 57%
    17:00 +15°C° 0 mm 4 mps 763 mmHg 63%
    18:00 +13°C° 0 mm 4 mps 763 mmHg 69%
    19:00 +12°C° 0 mm 4 mps 763 mmHg 76%
    20:00 +11°C° 0 mm 4 mps 764 mmHg 70%
    21:00 +10°C° 0 mm 4 mps 764 mmHg 64%
    22:00 +8°C° 0 mm 5 mps 765 mmHg 58%
    23:00 +7°C° 0 mm 4 mps 765 mmHg 56%

    24 March, Sunday

    Time Temperature Precipitation Wind Pressure Humidity
    00:00 +6°C° 0 mm 4 mps 765 mmHg 54%
    01:00 +5°C° 0 mm 3 mps 765 mmHg 52%
    02:00 +5°C° 0 mm 3 mps 765 mmHg 55%
    03:00 +4°C° 0 mm 3 mps 765 mmHg 58%
    04:00 +5°C° 0 mm 2 mps 765 mmHg 61%
    05:00 +4°C° 0 mm 2 mps 765 mmHg 63%
    06:00 +4°C° 0 mm 2 mps 765 mmHg 65%
    07:00 +4°C° 0 mm 2 mps 765 mmHg 67%
    08:00 +5°C° 0 mm 2 mps 764 mmHg 61%
    09:00 +7°C° 0 mm 2 mps 764 mmHg 54%
    10:00 +8°C° 0 mm 2 mps 764 mmHg 47%
    11:00 +9°C° 0 mm 2 mps 763 mmHg 44%
    12:00 +10°C° 0 mm 2 mps 763 mmHg 40%
    13:00 +12°C° 0 mm 2 mps 762 mmHg 37%
    14:00 +12°C° 0 mm 2 mps 761 mmHg 37%
    15:00 +12°C° 0 mm 2 mps 761 mmHg 36%
    16:00 +12°C° 0 mm 1 mps 760 mmHg 36%
    17:00 +11°C° 0 mm 1 mps 760 mmHg 40%
    18:00 +10°C° 0 mm 1 mps 760 mmHg 43%
    19:00 +8°C° 0 mm 1 mps 759 mmHg 47%
    20:00 +8°C° 0 mm 1 mps 759 mmHg 48%
    21:00 +7°C° 0 mm 1 mps 759 mmHg 50%
    22:00 +6°C° 0 mm 0 mps 759 mmHg 51%
    23:00 +6°C° 0 mm 1 mps 758 mmHg 53%

    25 March, Monday

    Time Temperature Precipitation Wind Pressure Humidity
    00:00 +6°C° 0 mm 1 mps 758 mmHg 55%
    01:00 +5°C° 0 mm 2 mps 757 mmHg 57%
    02:00 +4°C° 0 mm 3 mps 757 mmHg 57%
    03:00 +5°C° 0 mm 3 mps 756 mmHg 57%
    04:00 +5°C° 0 mm 4 mps 756 mmHg 57%
    05:00 +5°C° 0 mm 4 mps 756 mmHg 61%
    06:00 +3°C° 0 mm 5 mps 756 mmHg 65%
    07:00 +3°C° 0 mm 5 mps 755 mmHg 70%
    08:00 +4°C° 0 mm 6 mps 755 mmHg 66%
    09:00 +5°C° 0 mm 7 mps 755 mmHg 62%
    10:00 +6°C° 0 mm 8 mps 754 mmHg 59%
    11:00 +6°C° 0.1 mm 8 mps 754 mmHg 61%
    12:00 +6°C° 0.1 mm 9 mps 753 mmHg 63%
    13:00 +6°C° 0.1 mm 9 mps 753 mmHg 66%
    14:00 +5°C° 0.4 mm 9 mps 753 mmHg 63%
    15:00 +5°C° 0.4 mm 9 mps 752 mmHg 59%
    16:00 +5°C° 0.4 mm 10 mps 752 mmHg 56%
    17:00 +3°C° 0.1 mm 9 mps 752 mmHg 59%
    18:00 +3°C° 0.1 mm 7 mps 752 mmHg 61%
    19:00 +2°C° 0.1 mm 6 mps 752 mmHg 63%
    20:00 +2°C° 0 mm 7 mps 752 mmHg 64%
    21:00 +2°C° 0 mm 7 mps 752 mmHg 64%
    22:00 0°C° 0 mm 8 mps 751 mmHg 64%
    23:00 0°C° 0.1 mm 8 mps 751 mmHg 64%
    Show more